This is the latest recevied weather packets stored in our database for station/object 2E0RGX-13. If no packets are shown the sender has not sent any weather packets the latest 10 day(s).
| Time | Temp. | Humidity | Pressure | Rain* | Wind** | Luminosity | Snow |
|---|---|---|---|---|---|---|---|
| 1777928837 | 13.33° C | 77% | 1011.7 hPa | 0 mm | - | 0 W/m² | - |
| 1777928532 | 13.33° C | 77% | 1011.4 hPa | 0 mm | - | 0 W/m² | - |
| 1777926101 | 14.44° C | 77% | 1011.4 hPa | 0 mm | - | 0 W/m² | - |
| 1777925797 | 14.44° C | 77% | 1011.5 hPa | 0 mm | - | 0 W/m² | - |
| 1777925189 | 14.44° C | 77% | 1011.5 hPa | 0 mm | - | 0 W/m² | - |
| 1777924885 | 14.44° C | 77% | 1011.5 hPa | 0 mm | - | 0 W/m² | - |
| 1777924581 | 14.44° C | 77% | 1011.2 hPa | 0 mm | - | 0 W/m² | - |
| 1777922756 | 14.44° C | 77% | 1011 hPa | 0 mm | - | 0 W/m² | - |
| 1777918196 | 15° C | 74% | 1010.7 hPa | 0 mm | - | 0 W/m² | - |
| 1777917284 | 15° C | 75% | 1010.7 hPa | 0 mm | - | 1 W/m² | - |
| 1777916677 | 14.44° C | 75% | 1010.6 hPa | 0 mm | - | 1 W/m² | - |
| 1777916373 | 15° C | 74% | 1010.7 hPa | 0 mm | - | 1 W/m² | - |
| 1777916069 | 15° C | 74% | 1010.8 hPa | 0 mm | - | 1 W/m² | - |
| 1777915765 | 15° C | 75% | 1010.7 hPa | 0 mm | - | 1 W/m² | - |
| 1777915157 | 15° C | 75% | 1010.8 hPa | 0 mm | - | 1 W/m² | - |
| 1777914245 | 14.44° C | 75% | 1010.7 hPa | 0 mm | - | 2 W/m² | - |
| 1777913941 | 14.44° C | 76% | 1010.8 hPa | 0 mm | - | 1 W/m² | - |
| 1777913637 | 14.44° C | 76% | 1010.8 hPa | 0 mm | - | 1 W/m² | - |
| 1777912725 | 14.44° C | 76% | 1011.1 hPa | 0 mm | - | 1 W/m² | - |
| 1777912421 | 14.44° C | 76% | 1011.1 hPa | 0 mm | - | 0 W/m² | - |
| 1777912117 | 13.89° C | 76% | 1011.1 hPa | 0 mm | - | 0 W/m² | - |
| 1777911509 | 13.89° C | 76% | 1011.2 hPa | 0 mm | - | 1 W/m² | - |
| 1777911205 | 14.44° C | 76% | 1011.2 hPa | 0 mm | - | 1 W/m² | - |
| 1777910901 | 14.44° C | 76% | 1011.2 hPa | 0 mm | - | 0 W/m² | - |
| 1777910597 | 14.44° C | 76% | 1011.1 hPa | 0 mm | - | 0 W/m² | - |
* Rain latest hour (hover to see other rain measurements)
** Current wind speed in m/s (hover to see current wind gust speed)